| time (UTC) | temp F | wind direction | speed knots | gust knots | rain 1hr in | rain 24hr in | rain mn in | humidity % | barometer mb |
| 20260504235304 | 57 | 79 | 0.0 | 0.0 | 0.00 | 0.00 | 0.00 | 72 | 1008.4 |
| 20260504234759 | 58 | 79 | 0.0 | 0.0 | 0.00 | 0.00 | 0.00 | 65 | 1008.2 |
| 20260504234257 | 58 | 79 | 0.9 | 0.9 | 0.00 | 0.00 | 0.00 | 67 | 1008.2 |
| 20260504233753 | 59 | 103 | 0.0 | 0.0 | 0.00 | 0.00 | 0.00 | 70 | 1008.1 |
| 20260504233249 | 60 | 103 | 0.0 | 0.0 | 0.00 | 0.00 | 0.00 | 60 | 1008.1 |
| 20260504232746 | 62 | 108 | 0.0 | 0.0 | 0.00 | 0.00 | 0.00 | 57 | 1008.1 |
| 20260504232243 | 63 | 151 | 0.9 | 0.9 | 0.00 | 0.00 | 0.00 | 54 | 1007.9 |
| 20260504231740 | 64 | 130 | 0.9 | 0.9 | 0.00 | 0.00 | 0.00 | 49 | 1008.0 |
| 20260504231236 | 64 | 224 | 4.3 | 5.2 | 0.00 | 0.00 | 0.00 | 45 | 1008.0 |
| 20260504230732 | 64 | 236 | 1.7 | 1.7 | 0.00 | 0.00 | 0.00 | 46 | 1007.7 |
| 20260504230231 | 64 | 235 | 1.7 | 1.7 | 0.00 | 0.00 | 0.00 | 47 | 1007.7 |
| 20260504225729 | 65 | 229 | 2.6 | 2.6 | 0.00 | 0.00 | 0.00 | 47 | 1007.6 |
| 20260504225225 | 65 | 187 | 0.9 | 1.7 | 0.00 | 0.00 | 0.00 | 46 | 1007.5 |
| 20260504224722 | 65 | 169 | 0.9 | 1.7 | 0.00 | 0.00 | 0.00 | 48 | 1007.4 |
| 20260504224220 | 65 | 226 | 5.2 | 6.1 | 0.00 | 0.00 | 0.00 | 46 | 1007.4 |
| 20260504223716 | 66 | 140 | 0.9 | 0.9 | 0.00 | 0.00 | 0.00 | 44 | 1007.4 |
| 20260504223211 | 65 | 248 | 3.5 | 5.2 | 0.00 | 0.00 | 0.00 | 45 | 1007.4 |
| 20260504222709 | 66 | 174 | 6.1 | 8.7 | 0.00 | 0.00 | 0.00 | 44 | 1007.4 |
| 20260504222205 | 66 | 327 | 2.6 | 4.3 | 0.00 | 0.00 | 0.00 | 47 | 1007.4 |
| 20260504221703 | 65 | 233 | 2.6 | 4.3 | 0.00 | 0.00 | 0.00 | 46 | 1007.3 |
| 20260504221200 | 66 | 205 | 1.7 | 1.7 | 0.00 | 0.00 | 0.00 | 46 | 1007.4 |
| 20260504220656 | 66 | 229 | 7.0 | 8.7 | 0.00 | 0.00 | 0.00 | 44 | 1007.3 |
| 20260504220154 | 66 | 257 | 5.2 | 6.1 | 0.00 | 0.00 | 0.00 | 43 | 1007.3 |
| 20260504215650 | 66 | 237 | 2.6 | 2.6 | 0.00 | 0.00 | 0.00 | 44 | 1007.3 |
| 20260504215147 | 66 | 202 | 1.7 | 2.6 | 0.00 | 0.00 | 0.00 | 41 | 1007.5 |
| 20260504214643 | 66 | 281 | 0.9 | 0.9 | 0.00 | 0.00 | 0.00 | 44 | 1007.3 |
| 20260504214140 | 66 | 248 | 4.3 | 5.2 | 0.00 | 0.00 | 0.00 | 43 | 1007.4 |
| 20260504213636 | 66 | 241 | 7.0 | 7.8 | 0.00 | 0.00 | 0.00 | 47 | 1007.2 |
| 20260504213133 | 66 | 237 | 7.8 | 7.8 | 0.00 | 0.00 | 0.00 | 42 | 1007.4 |
| 20260504212629 | 66 | 245 | 4.3 | 7.0 | 0.00 | 0.00 | 0.00 | 43 | 1007.3 |
| 20260504212126 | 66 | 245 | 7.8 | 9.6 | 0.00 | 0.00 | 0.00 | 45 | 1007.0 |
| 20260504211624 | 67 | 242 | 4.3 | 6.1 | 0.00 | 0.00 | 0.00 | 43 | 1007.3 |
| 20260504211120 | 67 | 216 | 3.5 | 4.3 | 0.00 | 0.00 | 0.00 | 41 | 1007.3 |
| 20260504210618 | 67 | 303 | 2.6 | 4.3 | 0.00 | 0.00 | 0.00 | 43 | 1007.1 |
| 20260504210114 | 67 | 237 | 3.5 | 6.1 | 0.00 | 0.00 | 0.00 | 43 | 1007.3 |
| 20260504205612 | 66 | 216 | 2.6 | 2.6 | 0.00 | 0.00 | 0.00 | 44 | 1007.5 |
| 20260504205109 | 66 | 292 | 2.6 | 5.2 | 0.00 | 0.00 | 0.00 | 41 | 1007.4 |
| 20260504204608 | 66 | 87 | 0.9 | 0.9 | 0.00 | 0.00 | 0.00 | 44 | 1007.1 |
| 20260504204106 | 67 | 268 | 7.0 | 7.0 | 0.00 | 0.00 | 0.00 | 42 | 1007.1 |
| 20260504203604 | 66 | 337 | 2.6 | 2.6 | 0.00 | 0.00 | 0.00 | 43 | 1007.2 |
| 20260504203101 | 66 | 221 | 2.6 | 4.3 | 0.00 | 0.00 | 0.00 | 42 | 1007.0 |
| 20260504202556 | 66 | 237 | 5.2 | 7.0 | 0.00 | 0.00 | 0.00 | 42 | 1007.1 |
| 20260504202054 | 65 | 231 | 2.6 | 2.6 | 0.00 | 0.00 | 0.00 | 48 | 1007.0 |
| 20260504201550 | 65 | 241 | 3.5 | 4.3 | 0.00 | 0.00 | 0.00 | 46 | 1007.0 |
| 20260504201048 | 65 | 244 | 7.8 | 7.8 | 0.00 | 0.00 | 0.00 | 46 | 1007.1 |
| 20260504200544 | 65 | 276 | 5.2 | 7.0 | 0.00 | 0.00 | 0.00 | 46 | 1007.0 |
| 20260504200042 | 65 | 251 | 2.6 | 2.6 | 0.00 | 0.00 | 0.00 | 45 | 1007.0 |
| 20260504195537 | 64 | 237 | 9.6 | 11.3 | 0.00 | 0.00 | 0.00 | 46 | 1007.1 |
| 20260504195034 | 65 | 220 | 8.7 | 9.6 | 0.00 | 0.00 | 0.00 | 48 | 1007.1 |
| 20260504194531 | 65 | 240 | 12.2 | 13.0 | 0.00 | 0.00 | 0.00 | 47 | 1007.2 |
| 20260504194026 | 65 | 153 | 9.6 | 11.3 | 0.00 | 0.00 | 0.00 | 46 | 1007.2 |
| 20260504193523 | 66 | 203 | 5.2 | 6.1 | 0.00 | 0.00 | 0.00 | 44 | 1007.3 |
| 20260504193022 | 64 | 294 | 4.3 | 6.1 | 0.00 | 0.00 | 0.00 | 46 | 1007.4 |
| 20260504192520 | 64 | 232 | 9.6 | 11.3 | 0.00 | 0.00 | 0.00 | 48 | 1007.3 |
| 20260504192018 | 64 | 228 | 7.8 | 9.6 | 0.00 | 0.00 | 0.00 | 47 | 1007.3 |
| 20260504191515 | 64 | 238 | 1.7 | 4.3 | 0.00 | 0.00 | 0.00 | 47 | 1007.2 |
| 20260504191011 | 64 | 212 | 3.5 | 5.2 | 0.00 | 0.00 | 0.00 | 46 | 1007.3 |
| 20260504190507 | 63 | 217 | 6.1 | 7.8 | 0.00 | 0.00 | 0.00 | 49 | 1007.5 |
| 20260504190003 | 63 | 201 | 1.7 | 1.7 | 0.00 | 0.00 | 0.00 | 46 | 1007.5 |
| 20260504185501 | 63 | 231 | 7.8 | 8.7 | 0.00 | 0.00 | 0.00 | 51 | 1007.5 |
| 20260504184957 | 64 | 249 | 4.3 | 5.2 | 0.00 | 0.00 | 0.00 | 48 | 1007.4 |
| 20260504184452 | 64 | 176 | 3.5 | 4.3 | 0.00 | 0.00 | 0.00 | 43 | 1007.5 |
| 20260504183948 | 64 | 225 | 3.5 | 5.2 | 0.00 | 0.00 | 0.00 | 45 | 1007.7 |
| 20260504183446 | 63 | 289 | 3.5 | 5.2 | 0.00 | 0.00 | 0.00 | 46 | 1007.5 |
| 20260504182944 | 64 | 242 | 6.1 | 7.0 | 0.00 | 0.00 | 0.00 | 43 | 1007.4 |
| 20260504182440 | 63 | 270 | 5.2 | 7.0 | 0.00 | 0.00 | 0.00 | 44 | 1007.4 |
| 20260504181938 | 63 | 226 | 6.1 | 7.0 | 0.00 | 0.00 | 0.00 | 50 | 1007.6 |
| 20260504181434 | 63 | 28 | 2.6 | 4.3 | 0.00 | 0.00 | 0.00 | 45 | 1007.5 |
| 20260504180933 | 63 | 234 | 5.2 | 7.0 | 0.00 | 0.00 | 0.00 | 47 | 1007.6 |
| 20260504180432 | 63 | 243 | 11.3 | 13.9 | 0.00 | 0.00 | 0.00 | 43 | 1007.3 |
| 20260504175930 | 63 | 225 | 9.6 | 11.3 | 0.00 | 0.00 | 0.00 | 43 | 1007.4 |
| 20260504175426 | 63 | 226 | 9.6 | 12.2 | 0.00 | 0.00 | 0.00 | 49 | 1007.4 |
| 20260504174924 | 63 | 234 | 5.2 | 6.1 | 0.00 | 0.00 | 0.00 | 47 | 1007.3 |
| 20260504174421 | 62 | 240 | 8.7 | 11.3 | 0.00 | 0.00 | 0.00 | 49 | 1007.4 |
| 20260504173919 | 62 | 215 | 7.8 | 8.7 | 0.00 | 0.00 | 0.00 | 46 | 1007.4 |
| 20260504173415 | 62 | 216 | 7.8 | 8.7 | 0.00 | 0.00 | 0.00 | 47 | 1007.6 |
| 20260504172913 | 62 | 241 | 7.8 | 8.7 | 0.00 | 0.00 | 0.00 | 50 | 1007.4 |
| 20260504172408 | 62 | 244 | 9.6 | 12.2 | 0.00 | 0.00 | 0.00 | 47 | 1007.6 |
| 20260504171905 | 61 | 237 | 6.1 | 7.0 | 0.00 | 0.00 | 0.00 | 47 | 1007.6 |
| 20260504171402 | 62 | 234 | 7.0 | 8.7 | 0.00 | 0.00 | 0.00 | 46 | 1007.6 |
| 20260504170859 | 62 | 238 | 3.5 | 5.2 | 0.00 | 0.00 | 0.00 | 46 | 1007.5 |
| 20260504170355 | 62 | 223 | 4.3 | 6.1 | 0.00 | 0.00 | 0.00 | 46 | 1007.5 |
| 20260504160314 | 60 | 212 | 12.2 | 14.8 | 0.00 | 0.00 | 0.00 | 48 | 1007.8 |
| 20260504150739 | 58 | 227 | 7.8 | 11.3 | 0.00 | 0.00 | 0.00 | 53 | 1008.5 |
| 20260504150236 | 58 | 223 | 14.8 | 15.6 | 0.00 | 0.00 | 0.00 | 53 | 1008.4 |
| 20260504141205 | 55 | 222 | 7.0 | 8.7 | 0.00 | 0.00 | 0.00 | 59 | 1009.0 |
| 20260504140702 | 55 | 224 | 6.1 | 7.8 | 0.00 | 0.00 | 0.00 | 58 | 1009.0 |
| 20260504140158 | 55 | 208 | 10.4 | 12.2 | 0.00 | 0.00 | 0.00 | 60 | 1009.1 |
| 20260504130626 | 50 | 238 | 6.1 | 7.0 | 0.00 | 0.00 | 0.00 | 66 | 1009.7 |
| 20260504130123 | 50 | 127 | 0.0 | 0.9 | 0.00 | 0.00 | 0.00 | 67 | 1009.6 |
| 20260504110514 | 44 | 218 | 5.2 | 6.1 | 0.00 | 0.00 | 0.00 | 77 | 1010.5 |
| 20260504100436 | 44 | 223 | 6.1 | 7.0 | 0.00 | 0.00 | 0.00 | 76 | 1010.2 |
| 20260504081829 | 43 | 224 | 2.6 | 2.6 | 0.00 | 0.00 | 0.00 | 70 | 1010.3 |
| 20260504081326 | 43 | 307 | 3.5 | 4.3 | 0.00 | 0.00 | 0.00 | 70 | 1010.3 |
| 20260504080816 | 42 | 210 | 1.7 | 1.7 | 0.00 | 0.00 | 0.00 | 72 | 1010.2 |
| 20260504080314 | 42 | 153 | 3.5 | 4.3 | 0.00 | 0.00 | 0.00 | 74 | 1010.3 |
| 20260504070240 | 34 | 62 | 0.0 | 0.0 | 0.00 | 0.00 | 0.00 | 96 | 1010.1 |
| 20260504060201 | 32 | 85 | 0.0 | 0.0 | 0.00 | 0.00 | 0.00 | 95 | 1010.4 |
| 20260504050629 | 34 | 77 | 0.9 | 0.9 | 0.00 | 0.00 | 0.00 | 90 | 1010.2 |
| 20260504050126 | 35 | 80 | 0.0 | 0.9 | 0.00 | 0.00 | 0.00 | 88 | 1010.3 |
| 20260504045623 | 36 | 83 | 0.0 | 0.9 | 0.00 | 0.00 | 0.00 | 88 | 1010.3 |
| 20260504045118 | 37 | 160 | 0.9 | 0.9 | 0.00 | 0.00 | 0.00 | 88 | 1010.3 |
| 20260504044616 | 37 | 210 | 2.6 | 2.6 | 0.00 | 0.00 | 0.00 | 89 | 1010.5 |
| 20260504044112 | 36 | 205 | 3.5 | 4.3 | 0.00 | 0.00 | 0.00 | 90 | 1010.3 |
| 20260504043609 | 35 | 102 | 0.0 | 0.0 | 0.00 | 0.00 | 0.00 | 91 | 1010.5 |
| 20260504043107 | 35 | 102 | 0.0 | 0.9 | 0.00 | 0.00 | 0.00 | 91 | 1010.3 |
| 20260504042604 | 35 | 102 | 0.0 | 0.0 | 0.00 | 0.00 | 0.00 | 89 | 1010.3 |
| 20260504042100 | 35 | 102 | 0.0 | 0.0 | 0.00 | 0.00 | 0.00 | 89 | 1010.2 |
| 20260504041556 | 36 | 102 | 0.0 | 0.0 | 0.00 | 0.00 | 0.00 | 89 | 1010.4 |
| 20260504041053 | 35 | 105 | 0.0 | 0.9 | 0.00 | 0.00 | 0.00 | 88 | 1010.3 |
| 20260504040550 | 36 | 102 | 0.0 | 0.9 | 0.00 | 0.00 | 0.00 | 88 | 1010.1 |
| 20260504040047 | 36 | 101 | 0.0 | 0.9 | 0.00 | 0.00 | 0.00 | 86 | 1010.1 |
| 20260504035543 | 36 | 104 | 0.0 | 0.0 | 0.00 | 0.01 | 0.01 | 86 | 1010.0 |
| 20260504035040 | 37 | 106 | 0.9 | 0.9 | 0.00 | 0.01 | 0.01 | 85 | 1010.2 |
| 20260504034538 | 38 | 165 | 0.9 | 1.7 | 0.00 | 0.01 | 0.01 | 85 | 1010.0 |
| 20260504034034 | 38 | 135 | 0.9 | 0.9 | 0.00 | 0.01 | 0.01 | 84 | 1010.2 |
| 20260504033532 | 38 | 116 | 0.0 | 0.0 | 0.00 | 0.01 | 0.01 | 83 | 1010.0 |
| 20260504033030 | 39 | 198 | 2.6 | 2.6 | 0.00 | 0.01 | 0.01 | 81 | 1010.1 |
| 20260504032526 | 39 | 223 | 2.6 | 2.6 | 0.00 | 0.01 | 0.01 | 81 | 1010.0 |
| 20260504032023 | 40 | 218 | 3.5 | 4.3 | 0.00 | 0.01 | 0.01 | 83 | 1010.0 |
| 20260504031520 | 41 | 220 | 4.3 | 5.2 | 0.00 | 0.01 | 0.01 | 82 | 1009.9 |
| 20260504031016 | 40 | 214 | 2.6 | 2.6 | 0.00 | 0.01 | 0.01 | 79 | 1009.9 |
| 20260504030514 | 41 | 226 | 3.5 | 4.3 | 0.00 | 0.01 | 0.01 | 78 | 1010.0 |
| 20260504030010 | 41 | 225 | 3.5 | 4.3 | 0.00 | 0.01 | 0.01 | 78 | 1010.0 |
| 20260504025507 | 40 | 209 | 2.6 | 2.6 | 0.00 | 0.01 | 0.01 | 76 | 1010.0 |
| 20260504025004 | 41 | 224 | 1.7 | 1.7 | 0.00 | 0.01 | 0.01 | 79 | 1009.8 |
| 20260504024500 | 41 | 204 | 1.7 | 2.6 | 0.00 | 0.01 | 0.01 | 77 | 1009.8 |
| 20260504023958 | 41 | 119 | 0.9 | 0.9 | 0.00 | 0.01 | 0.01 | 75 | 1009.7 |
| 20260504023454 | 42 | 116 | 0.0 | 0.0 | 0.00 | 0.01 | 0.01 | 78 | 1009.8 |
| 20260504022950 | 42 | 194 | 1.7 | 2.6 | 0.00 | 0.01 | 0.01 | 78 | 1009.9 |
| 20260504022446 | 41 | 218 | 2.6 | 4.3 | 0.00 | 0.01 | 0.01 | 83 | 1009.8 |
| 20260504021943 | 40 | 79 | 0.0 | 0.0 | 0.00 | 0.01 | 0.01 | 74 | 1009.8 |
| 20260504021440 | 40 | 78 | 0.9 | 0.9 | 0.00 | 0.01 | 0.01 | 74 | 1009.8 |
| 20260504020937 | 40 | 86 | 0.0 | 0.9 | 0.00 | 0.01 | 0.01 | 77 | 1009.8 |
| 20260504020434 | 40 | 80 | 0.9 | 0.9 | 0.00 | 0.01 | 0.01 | 77 | 1009.8 |
| 20260504015931 | 40 | 83 | 0.0 | 0.9 | 0.00 | 0.01 | 0.01 | 77 | 1009.9 |
| 20260504015426 | 41 | 84 | 0.0 | 0.9 | 0.00 | 0.01 | 0.01 | 75 | 1009.7 |
| 20260504014923 | 43 | 93 | 0.0 | 0.0 | 0.00 | 0.01 | 0.01 | 76 | 1009.8 |
| 20260504014419 | 43 | 150 | 1.7 | 1.7 | 0.00 | 0.01 | 0.01 | 73 | 1009.8 |
| 20260504013916 | 43 | 239 | 4.3 | 4.3 | 0.00 | 0.01 | 0.01 | 78 | 1009.9 |
| 20260504013415 | 44 | 240 | 3.5 | 4.3 | 0.00 | 0.01 | 0.01 | 81 | 1009.9 |
| 20260504012910 | 43 | 236 | 4.3 | 5.2 | 0.00 | 0.01 | 0.01 | 77 | 1009.9 |
| 20260504012408 | 43 | 234 | 4.3 | 5.2 | 0.00 | 0.01 | 0.01 | 75 | 1009.8 |
| 20260504011905 | 43 | 231 | 1.7 | 2.6 | 0.00 | 0.01 | 0.01 | 74 | 1009.9 |
| 20260504011402 | 44 | 228 | 2.6 | 2.6 | 0.00 | 0.01 | 0.01 | 76 | 1009.9 |
| 20260504010858 | 44 | 212 | 1.7 | 1.7 | 0.00 | 0.01 | 0.01 | 71 | 1009.9 |
| 20260504010354 | 43 | 84 | 0.0 | 0.9 | 0.00 | 0.01 | 0.01 | 67 | 1009.7 |
| 20260504005850 | 44 | 84 | 0.9 | 0.9 | 0.00 | 0.01 | 0.01 | 65 | 1009.7 |
| 20260504005347 | 43 | 163 | 1.7 | 1.7 | 0.00 | 0.01 | 0.01 | 65 | 1009.6 |
| 20260504004845 | 43 | 90 | 0.0 | 0.0 | 0.00 | 0.01 | 0.01 | 66 | 1009.4 |
| 20260504004343 | 44 | 105 | 0.0 | 0.0 | 0.00 | 0.01 | 0.01 | 64 | 1009.2 |
| 20260504003839 | 44 | 75 | 0.0 | 0.0 | 0.00 | 0.01 | 0.01 | 64 | 1009.5 |
| 20260504003336 | 44 | 88 | 0.0 | 0.0 | 0.00 | 0.01 | 0.01 | 66 | 1009.2 |
| 20260504002832 | 44 | 106 | 0.9 | 1.7 | 0.00 | 0.01 | 0.01 | 63 | 1009.3 |
| 20260504002329 | 44 | 98 | 0.0 | 0.0 | 0.00 | 0.01 | 0.01 | 61 | 1009.2 |
| 20260504001827 | 44 | 101 | 0.0 | 0.0 | 0.00 | 0.01 | 0.01 | 61 | 1009.2 |
| 20260504001324 | 44 | 84 | 0.0 | 0.9 | 0.00 | 0.01 | 0.01 | 60 | 1009.1 |
| 20260504000821 | 45 | 192 | 1.7 | 2.6 | 0.00 | 0.01 | 0.01 | 64 | 1009.0 |
| 20260504000318 | 45 | 93 | 0.0 | 0.9 | 0.00 | 0.01 | 0.01 | 61 | 1009.0 |
| 20260503235815 | 45 | 148 | 0.9 | 1.7 | 0.00 | 0.01 | 0.01 | 60 | 1008.9 |